SCP
1 1 1 1 1 1 1 1 1 1 1 1 0 0 0 0 0 0 0 0 0 0 0 0 0 0 0 0 0 0 0 0 0 0 0 0 0 0 0 0 0 0 0
1 1 1 1 1 1 1 1 1 1 1 1 0 0 0 0 0 0 0 0 0 0 0 0 0 0 0 0 0 0 0 0 0 0 0 0 0 0 0 0 0 0 0
2 1 1 1 1 1 1 1 1 1 1 1 0 0 0 0 0 0 0 0 0 0 0 0 0 0 0 0 0 0 0 0 0 0 0 0 0 0 0 0 0 0 0
2 2 1 1 1 1 1 1 1 1 1 1 0 0 0 0 0 0 0 0 0 0 0 0 0 0 0 0 0 0 0 0 0 0 0 0 0 0 0 0 0 0 0
2 2 1 1 1 1 1 1 1 1 1 1 1 0 0 0 0 0 0 0 0 0 0 0 0 0 0 0 0 0 0 0 0 0 0 0 0 0 0 0 0 0 0
2 2 1 1 1 1 1 1 1 1 1 1 1 0 0 0 0 0 0 0 0 0 0 0 0 0 0 0 0 0 0 0 0 0 0 0 0 0 0 0 0 0 0
2 2 2 2 2 1 1 1 1 1 1 1 1 0 0 0 0 0 0 0 0 0 0 0 0 0 0 0 0 0 0 0 0 0 0 0 0 0 0 0 0 0 0
3 3 2 2 2 1 1 1 1 1 1 1 1 1 0 0 0 0 0 0 0 0 0 0 0 0 0 0 0 0 0 0 0 0 0 0 0 0 0 0 0 0 0
3 3 3 2 2 2 1 1 1 1 1 1 1 1 1 0 0 0 0 0 0 0 0 0 0 0 0 0 0 0 0 0 0 0 0 0 0 0 0 0 0 0 0
4 3 3 2 2 2 1 1 1 1 1 1 1 1 1 0 0 0 0 0 0 0 0 0 0 0 0 0 0 0 0 0 0 0 0 0 0 0 0 0 0 0 0
3 2 2 2 2 2 1 1 1 1 1 1 1 1 1 0 0 1 1 1 1 1 0 0 0 0 0 0 1 1 1 0 0 0 0 0 0 0 0 0 1 1 0
2 2 1 1 2 2 1 1 1 1 1 1 1 1 1 1 0 0 1 1 1 1 1 1 1 1 1 1 1 1 1 1 0 0 0 0 0 0 0 1 1 1 1
1 1 1 1 1 1 1 1 1 1 1 1 1 1 1 0 0 0 0 1 1 1 1 1 1 1 1 1 1 1 1 1 1 0 0 0 0 0 0 1 1 1 1
1 1 1 1 1 1 1 1 1 1 1 0 0 0 0 0 0 0 0 0 0 1 1 1 1 1 1 1 0 0 1 1 1 1 1 1 1 0 0 1 1 1 1
1 1 1 1 1 1 1 0 0 0 0 0 0 0 0 0 0 0 0 0 0 0 0 0 0 0 0 0 0 0 0 1 1 1 1 1 1 1 1 1 1 1 1
1 1 1 1 1 1 0 0 0 0 0 0 0 0 0 0 0 0 0 0 0 0 0 0 0 0 0 0 0 0 0 0 1 1 1 1 1 1 1 1 1 1 1
1 1 1 1 1 1 0 0 0 0 0 0 0 0 0 0 0 0 0 0 0 0 0 0 0 0 0 0 0 0 0 0 0 0 0 0 0 1 1 1 1 1 1
1 1 1 1 1 0 0 0 0 0 0 0 0 0 0 0 0 0 0 0 0 0 0 0 0 0 0 0 0 0 0 0 0 0 0 0 0 1 1 1 1 1 1
2 1 1 1 0 0 0 0 0 0 0 0 0 0 0 0 0 0 0 0 0 0 0 0 0 0 0 0 0 0 0 0 0 0 0 0 0 1 1 1 1 1 1
2 2 1 1 0 0 0 0 0 0 0 0 0 0 0 0 0 0 0 0 0 0 0 0 0 0 0 0 0 0 0 0 0 0 0 0 0 0 1 1 1 1 1
2 2 1 1 0 0 0 0 0 0 0 0 0 0 0 0 0 0 0 0 0 0 0 0 0 0 0 0 0 0 0 0 0 0 0 0 0 0 1 1 1 1 1
2 1 1 0 0 0 0 0 0 0 0 0 0 0 0 0 0 0 0 0 0 0 0 0 0 0 0 0 0 0 0 0 0 0 0 0 0 0 0 0 1 1 1
1 1 1 0 0 0 0 0 0 0 0 0 0 0 0 0 0 0 0 0 0 0 0 0 0 0 0 0 0 0 0 0 0 0 0 0 0 0 0 0 0 1 1
1 1 0 0 0 0 0 0 0 0 0 0 0 0 0 0 0 0 0 0 0 0 0 0 0 0 0 0 0 0 0 0 0 0 0 0 0 0 0 0 0 0 0
0 0 0 0 0 0 0 0 0 0 0 0 0 0 0 0 0 0 0 0 0 0 0 0 0 0 0 0 0 0 0 0 0 0 0 0 0 0 0 0 0 0 0
0 0 0 0 0 0 0 0 0 0 0 0 0 0 0 0 0 0 0 0 0 0 0 0 0 0 0 0 0 0 0 0 0 0 0 0 0 0 0 0 0 0 0
Wind_Speed
6 7 13 14 15 16 17 17 17 16 16 15 15 14 14 13 13 12 11 11 10 9 9 9 9 9 9 9 8 8 7 7 7 7 8 9 10 12 14 15 15 12 17
9 9 13 14 15 15 16 16 16 16 15 14 14 13 13 12 12 11 10 10 9 9 9 9 8 8 8 8 8 8 7 7 7 8 9 10 12 13 14 15 14 11 16
11 8 11 13 14 14 14 15 15 14 14 13 13 12 12 11 11 10 9 9 8 8 8 8 8 8 8 8 8 7 7 7 7 9 9 6 8 13 14 14 15 16 16
10 7 9 13 13 14 14 14 14 13 13 12 12 11 10 10 9 9 8 8 7 7 7 7 7 7 7 7 7 6 6 7 8 9 5 5 6 12 14 15 15 15 15
8 6 9 15 14 14 13 13 13 13 12 12 11 10 10 9 8 8 7 7 6 6 6 6 6 6 6 6 6 6 6 6 8 7 5 4 5 12 14 14 15 15 14
7 6 8 14 14 14 13 13 13 12 12 11 10 10 9 8 7 7 6 6 5 5 5 5 5 5 5 5 5 5 6 6 7 5 5 5 5 11 14 14 14 14 14
7 6 8 14 14 14 14 13 13 12 11 10 9 9 8 7 7 6 5 5 5 5 4 4 4 4 4 4 4 5 5 6 5 5 4 4 5 11 13 13 13 13 13
8 6 7 14 15 14 14 13 12 12 11 10 9 8 7 6 5 5 5 5 5 4 4 4 4 4 3 3 3 3 4 5 5 4 4 4 5 9 12 13 12 12 12
6 6 5 6 9 12 13 12 12 11 10 9 8 7 6 6 5 5 5 5 6 5 5 5 5 4 4 2 2 2 4 5 4 3 4 3 5 9 12 13 12 12 12
5 5 5 5 5 5 6 11 11 10 9 8 7 6 5 4 4 4 4 5 6 6 6 6 6 6 5 4 2 2 3 4 3 3 2 4 7 10 12 12 12 13 12
6 4 5 5 5 5 4 6 7 7 6 5 4 4 3 2 2 1 3 5 7 7 7 7 6 6 5 4 3 2 2 2 2 1 2 5 8 11 12 12 12 12 12
8 6 4 5 5 4 4 4 3 4 4 4 3 4 3 2 2 3 3 3 3 5 6 6 6 6 3 1 1 1 1 2 2 2 2 6 9 11 12 12 12 12 12
8 7 5 5 5 4 4 4 3 3 3 3 4 4 3 3 2 3 2 3 3 2 1 1 1 1 1 1 1 1 1 1 2 2 3 6 8 11 12 12 12 12 13
7 6 5 5 4 4 4 4 3 3 3 3 3 3 3 2 3 3 2 2 2 1 1 1 1 0 0 1 1 2 2 1 2 2 3 7 8 10 11 12 13 13 13
6 6 5 6 5 5 5 4 4 3 3 3 2 3 3 3 3 2 2 2 3 2 2 1 1 1 0 0 1 1 2 2 2 2 2 6 7 9 11 12 13 13 13
6 6 5 6 6 6 5 4 4 3 3 3 2 3 3 3 2 3 3 3 3 3 2 2 2 2 1 1 1 0 1 1 2 2 2 3 5 7 9 11 12 13 13
7 6 6 7 6 7 6 5 4 3 3 3 2 2 3 3 3 3 3 3 3 3 3 3 3 3 2 2 2 1 0 0 1 2 2 2 2 5 8 10 11 11 12
6 6 6 7 7 6 6 5 4 3 3 2 2 2 3 4 4 4 3 3 3 3 3 3 3 3 3 2 1 1 1 1 1 2 2 3 2 3 5 9 11 11 12
6 6 5 6 7 6 5 4 4 3 3 2 2 2 2 3 4 4 3 3 3 3 3 3 3 2 2 2 1 1 2 1 2 2 2 3 3 4 3 5 9 11 12
5 5 5 6 6 6 5 4 3 3 2 1 1 1 2 2 3 3 3 3 3 3 3 3 4 3 2 2 2 2 2 2 2 2 2 2 2 3 4 5 4 6 11
5 6 6 7 6 5 4 3 3 2 1 1 1 1 2 2 3 3 3 3 3 3 3 2 2 4 4 2 2 3 3 3 3 3 3 2 2 2 2 3 3 4 4
7 7 6 7 7 6 4 3 3 3 2 1 1 1 1 2 2 2 3 2 2 3 3 3 3 2 3 3 2 2 3 3 3 4 4 4 4 3 2 2 2 3 4
7 8 8 7 7 6 5 4 3 3 2 1 1 1 1 2 2 2 3 3 2 2 2 2 2 3 2 3 2 2 2 0 2 3 3 4 4 3 3 3 2 2 3
9 7 7 6 6 5 6 5 5 4 3 4 2 2 2 2 2 3 3 3 3 2 2 1 2 2 2 1 2 2 1 1 1 2 3 3 4 4 5 4 4 3 2
8 7 6 6 5 5 5 6 5 3 3 2 1 2 2 1 2 3 4 3 3 2 2 2 2 2 1 1 1 1 2 2 2 1 2 4 4 3 4 4 3 3 3
7 6 6 6 6 5 6 6 6 6 5 4 3 3 2 1 2 3 4 4 3 3 3 2 2 2 2 2 1 1 1 1 1 1 1 2 3 3 3 3 3 3 3
Wind_Direction
154 157 155 147 138 132 127 124 122 121 121 121 121 123 125 127 128 129 128 127 125 121 115 109 105 104 104 105 104 103 103 105 108 113 119 123 128 130 129 128 123 121 121
143 152 156 150 144 137 131 127 125 125 125 125 125 126 127 128 129 129 128 127 124 120 116 110 107 106 105 104 102 100 99 103 106 111 115 119 125 128 128 127 126 127 126
137 148 155 152 146 140 134 130 128 127 127 127 128 128 130 131 131 131 130 128 125 121 117 113 112 109 106 104 101 96 94 96 104 104 99 99 121 129 130 130 130 130 129
136 141 153 152 147 143 137 134 132 132 131 131 132 133 135 136 137 137 136 134 130 126 122 120 118 115 109 103 96 90 88 94 105 104 91 103 122 131 132 132 132 131 130
128 136 155 151 148 145 141 138 137 136 136 138 140 142 143 145 146 146 145 144 141 137 133 128 123 119 114 105 92 81 76 91 106 102 99 99 113 133 133 133 134 133 132
126 134 151 150 149 147 144 142 141 142 143 145 148 149 152 154 155 157 159 157 154 153 147 139 134 128 121 109 93 76 67 89 99 101 106 113 124 137 137 137 138 137 137
131 136 148 150 149 148 146 146 146 147 148 149 152 156 159 164 168 171 175 173 171 170 168 162 154 146 137 120 95 73 65 94 104 108 116 120 136 142 142 140 140 139 139
134 131 142 150 149 148 148 148 149 150 151 153 156 160 165 169 177 184 189 193 194 195 194 187 181 174 164 142 106 79 70 95 109 118 129 137 151 148 146 144 143 144 143
122 120 123 137 145 148 149 150 151 151 152 154 158 164 170 181 191 201 207 213 214 213 213 213 207 202 197 188 154 104 90 98 107 125 146 151 163 157 153 152 150 150 149
114 116 116 115 118 128 142 150 150 150 151 154 159 167 176 191 207 224 227 234 233 228 224 225 225 223 217 213 209 159 110 98 108 120 135 168 174 170 164 162 160 157 158
136 121 119 118 118 121 130 143 140 138 134 126 118 113 93 41 18 330 286 253 242 238 233 234 239 238 230 223 228 204 119 119 132 135 155 185 182 182 177 172 170 168 166
160 156 139 130 126 124 126 103 89 85 81 81 79 77 69 55 26 22 355 323 270 252 244 241 250 252 239 190 247 230 126 154 164 181 201 202 195 192 188 183 180 177 176
162 164 155 142 133 126 113 107 95 88 84 79 80 82 77 62 41 30 21 8 3 4 1 289 264 270 197 169 192 185 190 182 189 202 214 216 208 203 200 193 189 187 186
158 165 156 146 135 124 112 109 107 101 92 83 77 82 81 68 51 38 35 24 26 27 44 55 55 341 293 212 207 213 213 215 204 206 228 228 217 212 211 204 196 194 195
159 161 159 148 138 127 116 117 112 108 104 100 87 73 82 83 69 54 39 34 31 36 52 55 60 72 39 352 206 212 226 228 218 206 231 245 230 218 216 213 204 200 201
163 159 156 148 141 132 126 125 125 120 116 105 93 88 85 87 83 71 54 39 30 31 45 65 77 86 62 33 8 280 240 227 218 212 227 264 258 232 219 218 216 209 205
165 158 154 149 137 132 130 133 131 127 121 113 109 99 94 90 85 80 67 49 28 30 51 60 60 64 61 47 32 9 3 288 229 224 236 243 261 250 228 220 221 219 215
153 150 157 152 138 134 134 134 130 127 128 123 116 102 94 89 87 78 70 52 32 42 53 64 52 57 45 38 28 7 356 332 300 260 241 244 242 247 240 227 223 225 224
151 148 150 141 139 135 129 122 121 123 123 119 112 104 96 89 84 80 71 53 45 54 48 59 56 60 42 16 356 26 2 345 325 304 281 261 250 245 241 243 236 234 233
150 147 148 141 137 128 115 103 97 98 100 103 116 119 110 98 93 87 77 58 55 63 52 56 65 52 43 359 360 19 3 355 358 358 336 312 277 257 244 243 244 245 240
158 158 162 151 149 140 132 135 134 154 161 160 175 152 134 120 108 96 86 69 63 67 60 64 78 54 30 2 38 12 356 8 30 28 22 21 7 331 268 247 241 242 247
178 176 169 164 163 164 153 145 144 140 151 162 160 158 171 149 141 121 113 101 86 82 64 52 67 73 27 20 66 72 16 359 0 14 22 33 22 17 10 327 253 242 245
186 186 181 179 172 167 150 121 98 82 72 86 164 208 211 183 167 141 139 124 106 97 87 65 65 87 71 23 33 106 119 191 318 335 3 17 13 22 12 360 358 305 258
195 189 182 179 174 169 160 157 153 159 175 199 193 198 203 192 185 169 157 144 128 116 111 88 80 82 100 55 21 34 66 134 105 338 333 348 359 16 5 2 4 354 334
190 184 183 178 181 176 172 170 160 163 175 162 161 190 204 214 210 188 172 162 154 151 151 130 112 101 102 116 79 52 63 56 65 105 323 332 339 338 344 346 353 0 355
188 183 180 183 195 185 179 175 176 176 172 167 185 198 207 217 228 203 183 178 175 173 176 171 157 145 145 137 134 130 134 128 128 132 237 305 314 313 325 334 355 357 355